"Pseudo-MPEC" for JA0048

Created 2019 May 21 8:07:11 UT using Find_Orb

Click here for an explanation of pseudo-MPECs

 
 Astrometry: 
     JA0048   C2019 04 05$2qms8oONj6@DFq#YpK[l`2*bc%#5j[GNATwJ]h:Wfa)i@yn!lU[W93
     JA0048   C2019 04 05X_Du!1c62%dS3bXJ*r\JYenTbUd=kwAstrometryiruj]^p=DI*`W93
     JA0048   C2019 04 05[UDT7IgV=AN%Q9wvjyredacted;ebN/F2iOclick3?ZN!iL/ZuvjW93
     JA0048   C2019 04 078rr#1oy!HddwsdcbZ9OSMW.p*=PYntLf8DiJmhKo,iFY-0uA#Ju*W93
     JA0048   C2019 04 07\)@G*yo$%[p#$@pFF@,ifeQP`rSdG]FQ7here@RAt!yy\p#:jM`jW93
     JA0048   C2019 04 07mlZ41edq7r[_/\jGforvBvwvP3lSM6Zg'(explanation3apD4;=W93

Station data:
(W93) Korea Microlensing Telescope Network-CTIO  (S30.167216 W70.804000)
   Chile.  Observer Y. JeongAhn. 1.6-m f/3.22 reflector + CCD.

Orbital elements:  JA0048
   Perihelion 2116 Jul 23.566607 +/- 18403 TT = 13:35:54 (JD 2494117.066607)
Epoch 2019 Apr  7.0 TT = JDT 2458580.5                        AutoNEOCP
M 214.31131676 +/- 110              (J2000 ecliptic)
n   0.00409968 +/- 0.0022           Peri.  160.38076 +/- 90
a  38.6636170 +/- 13.8              Node   189.80211 +/- 4.5
e   0.1366800 +/- 0.186             Incl.    2.95117 +/- 59
P 240.41                   H  6.5   G  0.15   U  9.2  SR
q 33.3790711 +/- 12.9    Q 43.9481630 +/- 85.8
From 6 observations 2019 Apr. 5-7; mean residual 0".29
Residuals in arcseconds: 
190405 W93  .39-  .18-    190405 W93  .07+  .26+    190407 W93  .16+  .04-    
190405 W93  .31+  .07-    190407 W93  .47+  .10-    190407 W93  .59-  .10+    

Ephemerides (geocentric):
Date (UTC) HH   RA              Dec         delta   r     elong  mag " sig PA
---- -- -- --  -------------   -----------  ------ ------ -----  --- ---- ---
2019 05 21 08  12 59 29.942   -05 56 50.87  42.480 43.216 136.2 22.9 33.4  24
2019 05 21 09  12 59 29.818   -05 56 50.08  42.480 43.216 136.2 22.9 33.5  24
2019 05 21 10  12 59 29.693   -05 56 49.30  42.480 43.216 136.2 22.9 33.6  24
2019 05 21 11  12 59 29.569   -05 56 48.52  42.481 43.216 136.1 22.9 33.7  24
2019 05 21 12  12 59 29.445   -05 56 47.74  42.481 43.216 136.1 22.9 33.8  24
2019 05 21 13  12 59 29.321   -05 56 46.96  42.482 43.216 136.0 22.9 33.9  24
2019 05 21 14  12 59 29.197   -05 56 46.17  42.482 43.216 136.0 22.9 33.9  24
2019 05 21 15  12 59 29.073   -05 56 45.39  42.483 43.216 136.0 22.9 34.0  24
2019 05 21 16  12 59 28.950   -05 56 44.62  42.483 43.216 135.9 22.9 34.1  24
2019 05 21 17  12 59 28.826   -05 56 43.84  42.484 43.216 135.9 22.9 34.2  24
2019 05 21 18  12 59 28.703   -05 56 43.06  42.484 43.216 135.8 22.9 34.3  24
2019 05 21 19  12 59 28.579   -05 56 42.28  42.485 43.216 135.8 22.9 34.4  24
2019 05 21 20  12 59 28.456   -05 56 41.50  42.485 43.216 135.8 22.9 34.5  24
2019 05 21 21  12 59 28.333   -05 56 40.73  42.486 43.216 135.7 22.9 34.6  24
2019 05 21 22  12 59 28.210   -05 56 39.95  42.486 43.216 135.7 22.9 34.7  24
2019 05 21 23  12 59 28.087   -05 56 39.18  42.487 43.216 135.6 22.9 34.8  24
2019 05 22 00  12 59 27.964   -05 56 38.41  42.487 43.216 135.6 22.9 34.9  24
2019 05 22 01  12 59 27.841   -05 56 37.63  42.488 43.216 135.6 22.9 35.0  24
2019 05 22 02  12 59 27.719   -05 56 36.86  42.488 43.216 135.5 22.9 35.1  24
2019 05 22 03  12 59 27.596   -05 56 36.09  42.489 43.216 135.5 22.9 35.2  24
2019 05 22 04  12 59 27.474   -05 56 35.32  42.489 43.216 135.4 22.9 35.3  24
2019 05 22 05  12 59 27.351   -05 56 34.55  42.490 43.216 135.4 22.9 35.3  24
2019 05 22 06  12 59 27.229   -05 56 33.78  42.490 43.216 135.4 22.9 35.4  24
2019 05 22 07  12 59 27.107   -05 56 33.01  42.491 43.216 135.3 22.9 35.5  24
2019 05 22 08  12 59 26.985   -05 56 32.24  42.491 43.216 135.3 22.9 35.6  24
2019 05 22 09  12 59 26.863   -05 56 31.47  42.491 43.216 135.2 22.9 35.7  24
2019 05 22 10  12 59 26.741   -05 56 30.70  42.492 43.216 135.2 22.9 35.8  24
2019 05 22 11  12 59 26.620   -05 56 29.94  42.492 43.216 135.2 22.9 35.9  24
2019 05 22 12  12 59 26.498   -05 56 29.17  42.493 43.216 135.1 22.9 36.0  24
2019 05 22 13  12 59 26.377   -05 56 28.41  42.493 43.216 135.1 22.9 36.1  24
2019 05 22 14  12 59 26.255   -05 56 27.64  42.494 43.216 135.0 22.9 36.2  24
2019 05 22 15  12 59 26.134   -05 56 26.88  42.494 43.216 135.0 22.9 36.3  24
2019 05 22 16  12 59 26.013   -05 56 26.12  42.495 43.216 134.9 22.9 36.4  24
2019 05 22 17  12 59 25.892   -05 56 25.35  42.495 43.216 134.9 22.9 36.5  24
2019 05 22 18  12 59 25.771   -05 56 24.59  42.496 43.216 134.9 22.9 36.6  24
2019 05 22 19  12 59 25.650   -05 56 23.83  42.496 43.216 134.8 22.9 36.7  24
2019 05 22 20  12 59 25.530   -05 56 23.07  42.497 43.216 134.8 22.9 36.8  24
2019 05 22 21  12 59 25.409   -05 56 22.31  42.497 43.216 134.7 22.9 36.9  24
2019 05 22 22  12 59 25.289   -05 56 21.55  42.498 43.216 134.7 22.9 37.0  24
2019 05 22 23  12 59 25.168   -05 56 20.79  42.498 43.216 134.7 22.9 37.1  24
2019 05 23 00  12 59 25.048   -05 56 20.04  42.499 43.216 134.6 22.9 37.2  24
2019 05 23 01  12 59 24.928   -05 56 19.28  42.499 43.216 134.6 22.9 37.3  24
2019 05 23 02  12 59 24.808   -05 56 18.52  42.500 43.216 134.5 22.9 37.4  24
2019 05 23 03  12 59 24.688   -05 56 17.77  42.500 43.216 134.5 22.9 37.5  24
2019 05 23 04  12 59 24.568   -05 56 17.01  42.501 43.216 134.5 22.9 37.6  24
2019 05 23 05  12 59 24.448   -05 56 16.26  42.501 43.216 134.4 22.9 37.7  24
2019 05 23 06  12 59 24.329   -05 56 15.51  42.502 43.216 134.4 22.9 37.8  24
2019 05 23 07  12 59 24.209   -05 56 14.75  42.502 43.216 134.3 22.9 37.9  24